When you browse on this site, cookies collect data to enhance your experience and personalize the content and advertising you see.
Visit our Privacy Policy to learn more. By continuing to use the site, you agree to this use of cookies and data.
  • In Sweden
  • List of Countries
  • For 7 days
  • Water Temperature
  • Satellite Maps
  • Weather Map
  • Weather Widgets
  • user-avatar
    Login

    Hourly Weather Batman

    Today, 17 January, Thursday

    Time Temperature Precipitation Wind Pressure Humidity
    00:00 +7°C° 0.3 mm 2 mps 702 mmHg 80%
    01:00 +6°C° 0.1 mm 2 mps 702 mmHg 80%
    02:00 +6°C° 0.1 mm 2 mps 702 mmHg 81%
    03:00 +6°C° 0.1 mm 2 mps 701 mmHg 81%
    04:00 +6°C° 0.1 mm 2 mps 701 mmHg 81%
    05:00 +5°C° 0.1 mm 2 mps 702 mmHg 81%
    06:00 +6°C° 0.1 mm 1 mps 702 mmHg 80%
    07:00 +6°C° 0.1 mm 1 mps 702 mmHg 79%
    08:00 +7°C° 0.1 mm 1 mps 702 mmHg 78%
    09:00 +7°C° 0.1 mm 1 mps 703 mmHg 76%
    10:00 +7°C° 0.3 mm 1 mps 703 mmHg 74%
    11:00 +6°C° 0.3 mm 2 mps 703 mmHg 72%
    12:00 +7°C° 0.3 mm 2 mps 703 mmHg 69%
    13:00 +5°C° 0.7 mm 3 mps 704 mmHg 72%
    14:00 +4°C° 0.7 mm 3 mps 704 mmHg 75%
    15:00 +4°C° 0.7 mm 4 mps 704 mmHg 79%
    16:00 +3°C° 0.7 mm 4 mps 704 mmHg 80%
    17:00 +3°C° 0.7 mm 4 mps 705 mmHg 82%
    18:00 +1°C° 0.7 mm 4 mps 705 mmHg 83%
    19:00 +1°C° 0.4 mm 4 mps 706 mmHg 84%
    20:00 0°C° 0.4 mm 4 mps 706 mmHg 84%
    21:00 0°C° 0.4 mm 4 mps 707 mmHg 85%
    22:00 0°C° 0 mm 4 mps 708 mmHg 84%
    23:00 +1°C° 0 mm 3 mps 708 mmHg 82%

    Tomorrow, 18 January, Friday

    Time Temperature Precipitation Wind Pressure Humidity
    00:00 +1°C° 0 mm 2 mps 709 mmHg 81%
    01:00 +1°C° 0.1 mm 2 mps 710 mmHg 81%
    02:00 +2°C° 0.1 mm 1 mps 711 mmHg 80%
    03:00 +2°C° 0.1 mm 1 mps 712 mmHg 80%
    04:00 +2°C° 0 mm 1 mps 712 mmHg 79%
    05:00 +2°C° 0 mm 1 mps 713 mmHg 79%
    06:00 +2°C° 0 mm 1 mps 713 mmHg 78%
    07:00 +2°C° 0 mm 1 mps 714 mmHg 77%
    08:00 +2°C° 0 mm 1 mps 715 mmHg 76%
    09:00 +1°C° 0 mm 1 mps 715 mmHg 74%
    10:00 +2°C° 0 mm 1 mps 716 mmHg 71%
    11:00 +3°C° 0 mm 1 mps 716 mmHg 69%
    12:00 +2°C° 0 mm 2 mps 716 mmHg 66%
    13:00 +3°C° 0 mm 2 mps 716 mmHg 65%
    14:00 +3°C° 0 mm 2 mps 716 mmHg 65%
    15:00 +4°C° 0 mm 1 mps 716 mmHg 65%
    16:00 +4°C° 0 mm 1 mps 716 mmHg 68%
    17:00 +3°C° 0 mm 1 mps 716 mmHg 72%
    18:00 +2°C° 0 mm 1 mps 717 mmHg 76%
    19:00 +2°C° 0 mm 1 mps 717 mmHg 75%
    20:00 +2°C° 0 mm 1 mps 717 mmHg 75%
    21:00 0°C° 0 mm 0 mps 718 mmHg 75%
    22:00 0°C° 0 mm 0 mps 718 mmHg 74%
    23:00 0°C° 0 mm 0 mps 718 mmHg 74%

    Day after tomorrow, 19 January, Saturday

    Time Temperature Precipitation Wind Pressure Humidity
    00:00 0°C° 0 mm 0 mps 718 mmHg 73%
    01:00 0°C° 0 mm 0 mps 718 mmHg 72%
    02:00 0°C° 0 mm 0 mps 718 mmHg 72%
    03:00 0°C° 0 mm 0 mps 718 mmHg 71%
    04:00 -1°C° 0 mm 0 mps 718 mmHg 71%
    05:00 -1°C° 0 mm 0 mps 718 mmHg 70%
    06:00 -1°C° 0 mm 0 mps 718 mmHg 70%
    07:00 -1°C° 0 mm 0 mps 718 mmHg 67%
    08:00 0°C° 0 mm 0 mps 718 mmHg 64%
    09:00 +1°C° 0 mm 1 mps 718 mmHg 61%
    10:00 +2°C° 0 mm 1 mps 718 mmHg 59%
    11:00 +3°C° 0 mm 1 mps 718 mmHg 57%
    12:00 +4°C° 0 mm 1 mps 717 mmHg 54%
    13:00 +4°C° 0 mm 1 mps 717 mmHg 54%
    14:00 +4°C° 0 mm 1 mps 716 mmHg 54%
    15:00 +5°C° 0 mm 1 mps 716 mmHg 53%
    16:00 +4°C° 0 mm 1 mps 716 mmHg 58%
    17:00 +3°C° 0 mm 1 mps 716 mmHg 63%
    18:00 +2°C° 0 mm 1 mps 716 mmHg 67%
    19:00 +2°C° 0 mm 1 mps 716 mmHg 67%
    20:00 +2°C° 0 mm 1 mps 717 mmHg 67%
    21:00 0°C° 0 mm 0 mps 717 mmHg 66%
    22:00 0°C° 0 mm 0 mps 717 mmHg 66%
    23:00 0°C° 0 mm 0 mps 717 mmHg 65%

    20 January, Sunday

    Time Temperature Precipitation Wind Pressure Humidity
    00:00 0°C° 0 mm 0 mps 717 mmHg 65%
    01:00 0°C° 0 mm 0 mps 717 mmHg 64%
    02:00 0°C° 0 mm 0 mps 717 mmHg 64%
    03:00 0°C° 0 mm 0 mps 717 mmHg 63%
    04:00 0°C° 0 mm 0 mps 717 mmHg 63%
    05:00 -1°C° 0 mm 0 mps 717 mmHg 62%
    06:00 -1°C° 0 mm 0 mps 717 mmHg 61%
    07:00 0°C° 0 mm 0 mps 717 mmHg 58%
    08:00 0°C° 0 mm 0 mps 718 mmHg 55%
    09:00 0°C° 0 mm 0 mps 718 mmHg 52%
    10:00 +1°C° 0 mm 0 mps 718 mmHg 50%
    11:00 +3°C° 0 mm 1 mps 717 mmHg 47%
    12:00 +4°C° 0 mm 1 mps 717 mmHg 44%
    13:00 +5°C° 0 mm 1 mps 717 mmHg 44%
    14:00 +5°C° 0 mm 1 mps 716 mmHg 44%
    15:00 +6°C° 0 mm 1 mps 716 mmHg 45%
    16:00 +4°C° 0 mm 1 mps 716 mmHg 50%
    17:00 +3°C° 0 mm 1 mps 716 mmHg 55%
    18:00 +2°C° 0 mm 1 mps 716 mmHg 60%
    19:00 +1°C° 0 mm 0 mps 716 mmHg 59%
    20:00 +1°C° 0 mm 0 mps 717 mmHg 59%
    21:00 +1°C° 0 mm 0 mps 717 mmHg 59%
    22:00 +1°C° 0 mm 0 mps 717 mmHg 59%
    23:00 0°C° 0 mm 0 mps 717 mmHg 58%

    21 January, Monday

    Time Temperature Precipitation Wind Pressure Humidity
    00:00 0°C° 0 mm 0 mps 717 mmHg 58%
    01:00 0°C° 0 mm 0 mps 717 mmHg 58%
    02:00 0°C° 0 mm 0 mps 717 mmHg 58%
    03:00 0°C° 0 mm 0 mps 717 mmHg 58%
    04:00 0°C° 0 mm 0 mps 717 mmHg 57%
    05:00 0°C° 0 mm 0 mps 717 mmHg 57%
    06:00 0°C° 0 mm 0 mps 717 mmHg 57%
    07:00 0°C° 0 mm 0 mps 717 mmHg 54%
    08:00 +1°C° 0 mm 0 mps 717 mmHg 52%
    09:00 +1°C° 0 mm 0 mps 717 mmHg 49%
    10:00 +2°C° 0 mm 0 mps 717 mmHg 47%
    11:00 +3°C° 0 mm 0 mps 716 mmHg 44%
    12:00 +5°C° 0 mm 1 mps 716 mmHg 42%
    13:00 +5°C° 0 mm 1 mps 716 mmHg 41%
    14:00 +6°C° 0 mm 1 mps 715 mmHg 41%
    15:00 +6°C° 0 mm 1 mps 715 mmHg 41%
    16:00 +5°C° 0 mm 1 mps 715 mmHg 46%
    17:00 +4°C° 0 mm 1 mps 715 mmHg 51%
    18:00 +3°C° 0 mm 1 mps 715 mmHg 57%
    19:00 +3°C° 0 mm 1 mps 716 mmHg 57%
    20:00 +2°C° 0 mm 1 mps 716 mmHg 57%
    21:00 +1°C° 0 mm 0 mps 716 mmHg 57%
    22:00 +1°C° 0 mm 0 mps 716 mmHg 58%
    23:00 +1°C° 0 mm 0 mps 716 mmHg 58%

    22 January, Tuesday

    Time Temperature Precipitation Wind Pressure Humidity
    00:00 +1°C° 0 mm 0 mps 716 mmHg 58%
    01:00 0°C° 0 mm 0 mps 716 mmHg 58%
    02:00 0°C° 0 mm 0 mps 716 mmHg 58%
    03:00 0°C° 0 mm 0 mps 716 mmHg 58%
    04:00 0°C° 0 mm 0 mps 716 mmHg 57%
    05:00 0°C° 0 mm 0 mps 716 mmHg 57%
    06:00 0°C° 0 mm 0 mps 716 mmHg 57%
    07:00 0°C° 0 mm 0 mps 716 mmHg 54%
    08:00 +2°C° 0 mm 1 mps 716 mmHg 51%
    09:00 +2°C° 0 mm 1 mps 717 mmHg 49%
    10:00 +3°C° 0 mm 1 mps 716 mmHg 46%
    11:00 +4°C° 0 mm 1 mps 716 mmHg 43%
    12:00 +5°C° 0 mm 1 mps 716 mmHg 40%
    13:00 +6°C° 0 mm 1 mps 715 mmHg 40%
    14:00 +6°C° 0 mm 1 mps 715 mmHg 41%
    15:00 +7°C° 0 mm 1 mps 715 mmHg 41%
    16:00 +6°C° 0 mm 1 mps 715 mmHg 46%
    17:00 +4°C° 0 mm 1 mps 715 mmHg 52%
    18:00 +3°C° 0 mm 1 mps 715 mmHg 57%
    19:00 +3°C° 0 mm 1 mps 715 mmHg 58%
    20:00 +2°C° 0 mm 0 mps 716 mmHg 58%
    21:00 +1°C° 0 mm 0 mps 716 mmHg 58%
    22:00 +1°C° 0 mm 0 mps 716 mmHg 58%
    23:00 +1°C° 0 mm 0 mps 716 mmHg 58%
    Show more